Pagrindinis puslapis
METAR-TAF:

METAR-TAF

Oro uostai :

North Perry Airport

Hollywood, Florida, Jungtinės Amerikos Valstijos

platuma: 25-59-56N, ilguma: 080-14-28W, Aukštis: 2 m

Dabartinis oras

Ataskaita buvo paskelbta 58 minutes, ne 23:53 UTC
Vėjas 13 kt iš Vakarų/Pietvakarių
Temperatūra 29°C
Drėgmė 55%
Slėgis 1010 hPa
Matomumas: 16.1 km
Giedras dangus

METAR: KHWO 312353Z 24013KT 10SM CLR 29/19 A2982 RMK AO2 SLP097 T02890194 10344 20289 53001

Laikas: 20:51 (00:51 UTC)


TAF: trūkstamas

Orai ataskaitas ir orų prognozės (METAR, TAF).

turimą stotys yra geltonos ir raudonos taškus žemėlapyje.

Perkelti pele per norėdami pamatyti stoties vardą.

Tada spustelėkite, norėdami matyti oro stebėjimo ir prognozės.

Norėdami pakeisti žemėlapį: spustelėkite ant žalios mygtukų su juodo kryžiaus žemyn,; žalią mygtuką su brūkšneliu, jei norite nutolinti; arba žalių rodyklių gretimoms žemėlapius.


METAR-TAF: